Location: State Line Observation Field
(36.5320°N, 77.5360°W)
Time: 17:43:06
(UTC-04:00)

Envisat - Pass Details

Date: 13 March 2021
Orbit: 764 x 766 km, 98.1° (Epoch: 16 April)

Event Time Altitude Azimuth Distance (km) Brightness Sun altitude
Rises 05:29:32 0° 16° (NNE) 3,237 6.5 -11.7°
Reaches altitude 10° 05:31:54 10° 21° (NNE) 2,306 5.8 -11.2°
Maximum altitude 05:36:55 59° 101° (E) 877 3.7 -10.2°
Drops below altitude 10° 05:41:53 10° 180° (S) 2,290 5.4 -9.2°
Sets 05:44:13 0° 184° (S) 3,212 6.1 -8.7°
